Location: Unspecified
(41.1711°N, 0.0000°E)
Time: 09:57:06
(UTC+00:00)

Tiangong 2 - Visible Passes

Search period start: 26 May 2019 00:00
Search period end: 05 June 2019 00:00
Orbit: 379 x 387 km, 42.8° (Epoch: 26 May)

Date Brightness Start Highest point End Pass type
(mag) Time Alt. Az. Time Alt. Az. Time Alt. Az.
26 May 0.8 21:23:15 10° WNW 21:26:23 84° SSW 21:26:28 82° SSE visible
27 May 1.2 20:23:11 10° WNW 20:26:19 74° N 20:29:00 13° E visible
27 May 3.3 22:00:01 10° W 22:01:11 19° W 22:01:11 19° W visible
28 May 1.2 20:59:52 10° W 21:02:57 56° SSW 21:03:43 41° SSE visible
29 May 1.0 19:59:47 10° WNW 20:02:55 85° SSW 20:06:03 10° ESE visible
29 May 3.1 21:36:54 10° W 21:38:25 18° WSW 21:38:25 18° WSW visible
30 May 2.0 20:36:33 10° W 20:39:27 35° SSW 20:40:59 21° SSE visible
31 May 3.5 21:14:18 10° WSW 21:15:43 13° SW 21:15:44 13° SW visible
01 Jun 2.8 20:13:23 10° W 20:15:52 22° SSW 20:18:21 10° SSE visible
